Regional Weather Roundup
Issued by NWS Charleston, SC

Home | Current Version | Previous Version | Text Only | Print | Product List | Glossary On
Versions: 1 2 3 4 5 6 7 8 9 10 11 12 13 14 15 16 17 18 19 20 21 22 23 24 25 26 27 28 29 30 31 32 33 34 35 36 37 38 39 40 41 42 43 44 45 46 47 48 49 50
000
ASUS42 KCHS 030725
RWRCHS

REGIONAL WEATHER ROUNDUP
NATIONAL WEATHER SERVICE CHARLESTON SC
300 AM EDT WED SEP 03 2014

NOTE: "FAIR" INDICATES FEW OR NO CLOUDS BELOW 12,000 FEET WITH NO
SIGNIFICANT WEATHER AND/OR OBSTRUCTIONS TO VISIBILITY.

NOT ALL STATIONS ARE QUALITY CONTROLLED BY THE NATIONAL
WEATHER SERVICE. USE DATA WITH CAUTION...ESPECIALLY
DEWPOINT OBSERVATIONS.

SCZ027-030-031-034>040-042>050-030800-
...SOUTH CAROLINA...

CITY           SKY/WX    TMP DP  RH WIND       PRES   REMARKS
N CHARLESTON   PTCLDY    78  73  84 NW3       30.04S
WATERFRONT PRK   N/A     81 N/A N/A NW5         N/A
FORT JOHNSON   NOT AVBL
MOUNT PLEASANT FAIR      79  75  89 NW5       30.03F
JOHNS ISLAND   CLOUDY    79  79 100 CALM      30.04S
PINOPOLIS        N/A     79  73  83 W6        29.95F
MONCKS CORNER    N/A     75  73  94 CALM      30.04S
SUMMERVILLE    FAIR      72  72 100 CALM      30.05S
BEAUFORT MCAS  PTCLDY    76  73  91 MISG      30.03F
BEAUFORT ARPT  FAIR      77  75  94 CALM      30.02F
HILTON HEAD IS PTCLDY    75  75 100 CALM      30.04S
GEORGETOWN     NOT AVBL
WALTERBORO     PTSUNNY   72 N/A N/A CALM      30.04F
ORANGEBURG     PTCLDY    72  69  90 SE5       30.04F
BARNWELL       FAIR      73  72  94 CALM      30.04S
AIKEN          FAIR      72  72 100 CALM      30.06S
MANNING        FAIR      73 N/A N/A CALM      30.03F
KINGSTREE      NOT AVBL
COLUMBIA       MOCLDY    73  70  90 W5        30.02S
SUMTER         PTCLDY    72  71  96 S2        30.01F
FLORENCE       CLEAR     74  70  87 S7        30.02F
MYRTLE BEACH   MOCLDY    79  73  83 W6        30.03S
N MYRTLE BEACH MOCLDY    80  74  81 W5        30.02F

$$

GAZ063-065-086>088-099>101-113>116-118-119-134-136>141-150-030800-
...GEORGIA...

CITY           SKY/WX    TMP DP  RH WIND       PRES   REMARKS
SAVANNAH ARPT  MOCLDY    75  72  90 N3        30.03F
HUNTER AAF     PTCLDY    73  73 100 CALM      30.01S
FORT STEWART   PTCLDY    72  70  94 CALM      30.02S
STATESBORO     NOT AVBL
SYLVANIA       PTSUNNY   70  69  98 CALM      30.04F FOG
CLAXTON        FAIR     N/A N/A N/A CALM      30.03F
THOMSON        PTCLDY    74  74  99 CALM      30.08R
AUGUSTA-BUSH   MOCLDY    72  70  93 S5        30.02F
AUGUSTA-DANIEL MOCLDY    74  71  91 CALM      30.03F
SWAINSBORO     FAIR      73  73 100 CALM      30.04F
VIDALIA        MOCLDY    72  72 100 CALM      30.03F
ALMA           PTCLDY    73  72  96 CALM      30.03F
WAYCROSS       PTCLDY    76  75  98 CALM      30.02F
JESUP            N/A     73  72  94 CALM      30.03S
BRUNSWICK        N/A     72  70  94 CALM      30.04R
SAINT SIMONS   CLEAR     73  72  96 CALM      30.03S

$$

SCZ027-028-034-036>038-045-046-048>050-GAZ119-141-030800-
...LAKE AND SUPPLEMENTAL COASTAL OBSERVATIONS...

STATION/POSITION TIME  TEMP    WIND        PRES    WAVE   SWELL
                       AIR SEA DIR/SP/G            HT/PER HT/PER/DIR
                 (UTC) (F)     (DEG/KT/KT) (MB)    (FT/S) (FT/S/D)
UPR LAKE MARION  NOT AVBL
WINYAH BAY       0700   79     270/  3     1017.0S
LAKE MURRAY      0700   77     200/  3/  5 1015.9F
ACE BASIN NERRS  0700   75        CALM     1017.0S
FORT PULASKI     0700   77     300/  5/  5 1017.0F
SAPELO ISLAND    0700   74        CALM     1017.0S

$$

ANZ835-935-AMZ111-154-330-350-352-354-374-450-454-472-030800-
...C-MAN AND BUOY OBSERVATIONS...

STATION/POSITION TIME  TEMP    WIND        PRES    WAVE   SWELL
                       AIR SEA DIR/SP/G            HT/PER HT/PER/DIR
                 (UTC) (F)     (DEG/KT/KT) (MB)    (FT/S) (FT/S/D)
FOLLY BEACH CMAN 0700   80     290/  5/  8 1017.4F
BUOY 41004       0700   83 83  210/  8/ 10 1016.4F   2/ 8   2/ 8
BUOY 41008       0700   83 85  220/  8/ 10 1016.6F   2/ 9   2/ 80/ 9
5E ST. MARYS GA  0700      84                N/A     2/12   2/ 80/12
FRYING PAN BUOY  NOT AVBL
BUOY 41025       0700   81     230/ 17/ 21 1016.2F   4/ 5   2/ 50/10
CAPE LOOKOUT NC  0700   81     240/ 11/ 15 1016.5F
BUOY 41002       0602   81 83  200/ 12/ 14 1018.8    3/11   2/ 70/11
BUOY 41010       0700   81 84   90/  6/  6 1017.2F   3/13   3/ 50/13
BUOY 41012       NOT AVBL
ST AUGUSTINE FL  0700   79     190/  4/  4 1017.1F
CAPERS NEARSHORE 0600   82     230/ 12/ 14   N/A
FRIPP NEARSHORE  NOT AVBL


$$


USA.gov is the U.S. government's official web portal to all federal, state and local government web resources and services.